Location: Ridgway Nature & Science Center
(38.1460°N, 107.7553°W)
Time: 00:14:26
(UTC-06:00)

ISS - Visible Passes

Search period start: 26 October 2021 00:00
Search period end: 05 November 2021 00:00
Orbit: 417 x 423 km, 51.6° (Epoch: 25 October)

Date Brightness Start Highest point End Pass type
(mag) Time Alt. Az. Time Alt. Az. Time Alt. Az.
26 Oct -1.1 05:17:53 17° NE 05:17:53 17° NE 05:18:48 10° NE visible
26 Oct -1.5 06:51:10 10° NW 06:52:53 13° NNW 06:54:35 10° NNE visible
27 Oct -1.7 06:05:48 17° NNW 06:05:48 17° NNW 06:07:43 10° NNE visible
28 Oct -0.7 05:20:37 11° NNE 05:20:37 11° NNE 05:20:46 10° NNE visible
29 Oct -1.2 06:08:22 11° N 06:08:22 11° N 06:09:00 10° N visible
01 Nov -1.0 07:01:06 10° N 07:01:39 10° NNE 07:02:13 10° NNE visible
03 Nov -1.4 07:02:12 10° NNW 07:04:25 16° NNE 07:06:38 10° ENE visible
04 Nov -1.1 06:15:23 10° N 06:16:53 13° NNE 06:18:29 10° NE visible
